This demonstration page uses our WeatherBlox Daily Observations layout. Learn more.

Left ArrowRight Arrow

41.86663, -103.66717

Hourly Observations for June 16, 2021

Temp ( °F °C ) Dew Point ( °F °C ) Humidity (%) Winds ( mph kmh ) Pressure ( in mb ) Visibility ( mi km ) Precip ( " mm )
12:53 am 00:53 Clear 75 23.9 57 13.9 54 54 E 9 15 29.84 1011 10 16 N/A
1:53 am 01:53 Clear 72 22.2 56 13.3 57 57 E 8 13 29.83 1010 10 16 N/A
2:53 am 02:53 Clear 70 21.1 56 13.3 61 61 ENE 8 13 29.83 1010 10 16 N/A
3:53 am 03:53 Clear 70 21.1 55 12.8 59 59 N N/A 29.82 1010 10 16 N/A
4:53 am 04:53 Clear 63 17.2 55 12.8 76 76 E 3 6 29.83 1010 10 16 N/A
5:53 am 05:53 Sunny 64 17.8 55 12.8 73 73 NNE 3 6 29.85 1011 10 16 N/A
6:53 am 06:53 Sunny 66 18.9 58 14.4 75 75 WNW 5 7 29.86 1011 10 16 N/A
7:53 am 07:53 Sunny 70 21.1 56 13.3 61 61 WNW 8 13 29.87 1012 10 16 N/A
8:53 am 08:53 Sunny 78 25.6 58 14.4 50 50 WNW 9 15 29.88 1012 10 16 N/A
9:53 am 09:53 Sunny 86 30 53 11.7 32 32 WNW 10 17 29.86 1011 10 16 N/A
10:53 am 10:53 Sunny 91 32.8 52 11.1 26 26 W 13 20 29.87 1011 10 16 N/A
11:48 am 11:48 Sunny 100 38 43 6 14 14 NE 16 26 29.63 1003 10 16 N/A
11:53 am 11:53 Sunny 101 38.3 40 4.4 12 12 ENE 18 30 29.86 1011 10 16 N/A
12:53 pm 12:53 Sunny 102 38.9 42 5.6 13 13 ENE 13 20 29.87 1011 10 16 N/A
1:53 pm 13:53 Sunny 100 37.8 46 7.8 16 16 ENE 15 24 29.88 1012 10 16 N/A
2:53 pm 14:53 Sunny 101 38.3 46 7.8 15 15 NE 18 30 29.86 1011 10 16 N/A
3:53 pm 15:53 Sunny 99 37.2 49 9.4 18 18 ENE 16 26 29.86 1011 10 16 N/A
4:53 pm 16:53 Sunny 97 36.1 52 11.1 22 22 NE 17 28 29.88 1012 10 16 N/A
5:53 pm 17:53 Sunny 94 34.4 52 11.1 24 24 ENE 17 28 29.88 1012 10 16 N/A
6:53 pm 18:53 Sunny 90 32.2 51 10.6 26 26 ENE 15 24 29.88 1012 10 16 N/A
7:53 pm 19:53 Sunny 85 29.4 51 10.6 31 31 ENE 13 20 29.89 1012 10 16 N/A
8:53 pm 20:53 Clear 82 27.8 51 10.6 34 34 E 12 19 29.90 1013 10 16 N/A
9:53 pm 21:53 Clear 78 25.6 53 11.7 42 42 E 7 11 29.90 1013 10 16 N/A
10:53 pm 22:53 Clear 75 23.9 54 12.2 48 48 ESE 7 11 29.90 1012 10 16 N/A
11:53 pm 23:53 Clear 72 22.2 54 12.2 53 53 ESE 3 6 29.86 1011 10 16 N/A

Powered by AerisWeather